| time (UTC) | temp F | wind direction | speed knots | gust knots | rain 1hr in | rain 24hr in | rain mn in | humidity % | barometer mb |
| 20260903143230 | 75 | 266 | 6.1 | 13.0 | 0.00 | 0.00 | 0.00 | 67 | 1017.9 |
| 20260903142729 | 75 | 233 | 7.0 | 17.4 | 0.00 | 0.00 | 0.00 | 66 | 1017.9 |
| 20260903142229 | 76 | 286 | 12.2 | 17.4 | 0.00 | 0.00 | 0.00 | 65 | 1017.8 |
| 20260903141732 | 78 | 220 | 9.6 | 18.2 | 0.00 | 0.00 | 0.00 | 65 | 1017.7 |
| 20260903141233 | 77 | 254 | 13.0 | 18.2 | 0.00 | 0.00 | 0.00 | 67 | 1017.7 |
| 20260903140730 | 76 | 255 | 9.6 | 15.6 | 0.00 | 0.00 | 0.00 | 68 | 1017.9 |
| 20260903140618 | 75 | 274 | 7.8 | 15.6 | 0.00 | 0.00 | 0.00 | 69 | 1017.8 |
| 20260903135732 | 74 | 247 | 7.8 | 13.9 | 0.00 | 0.00 | 0.00 | 69 | 1017.9 |
| 20260903135231 | 74 | 224 | 7.0 | 14.8 | 0.00 | 0.00 | 0.00 | 69 | 1017.9 |
| 20260903134730 | 74 | 247 | 7.0 | 14.8 | 0.00 | 0.00 | 0.00 | 69 | 1017.9 |
| 20260903134627 | 74 | 321 | 8.7 | 14.8 | 0.00 | 0.00 | 0.00 | 69 | 1017.9 |
| 20260903133733 | 74 | 255 | 4.3 | 15.6 | 0.00 | 0.00 | 0.00 | 70 | 1017.9 |
| 20260903133232 | 74 | 269 | 8.7 | 15.6 | 0.00 | 0.00 | 0.00 | 69 | 1018.0 |
| 20260903132731 | 74 | 244 | 8.7 | 16.5 | 0.00 | 0.00 | 0.00 | 69 | 1017.9 |
| 20260903132229 | 75 | 257 | 7.0 | 16.5 | 0.00 | 0.00 | 0.00 | 69 | 1017.7 |
| 20260903131728 | 75 | 282 | 9.6 | 18.2 | 0.00 | 0.00 | 0.00 | 69 | 1017.7 |
| 20260903131228 | 75 | 272 | 11.3 | 18.2 | 0.00 | 0.00 | 0.00 | 68 | 1017.8 |
| 20260903130728 | 75 | 203 | 7.8 | 15.6 | 0.00 | 0.00 | 0.00 | 69 | 1017.7 |
| 20260903130226 | 74 | 278 | 6.1 | 12.2 | 0.00 | 0.00 | 0.00 | 72 | 1017.7 |
| 20260903125725 | 73 | 272 | 4.3 | 17.4 | 0.00 | 0.00 | 0.00 | 72 | 1017.8 |
| 20260903125225 | 73 | 243 | 11.3 | 17.4 | 0.00 | 0.00 | 0.00 | 71 | 1017.9 |
| 20260903124728 | 74 | 255 | 7.8 | 15.6 | 0.00 | 0.00 | 0.00 | 73 | 1017.8 |
| 20260903124225 | 73 | 271 | 5.2 | 14.8 | 0.00 | 0.00 | 0.00 | 74 | 1017.7 |
| 20260903123722 | 73 | 252 | 5.2 | 17.4 | 0.00 | 0.00 | 0.00 | 73 | 1017.7 |
| 20260903123221 | 73 | 230 | 8.7 | 17.4 | 0.00 | 0.00 | 0.00 | 73 | 1017.9 |
| 20260903122723 | 73 | 252 | 7.0 | 17.4 | 0.00 | 0.00 | 0.00 | 74 | 1017.8 |
| 20260903122220 | 73 | 285 | 11.3 | 17.4 | 0.00 | 0.00 | 0.00 | 72 | 1017.8 |
| 20260903121720 | 73 | 258 | 8.7 | 16.5 | 0.00 | 0.00 | 0.00 | 71 | 1017.7 |
| 20260903121218 | 74 | 254 | 10.4 | 16.5 | 0.00 | 0.00 | 0.00 | 70 | 1017.6 |
| 20260903120718 | 73 | 255 | 7.0 | 15.6 | 0.00 | 0.00 | 0.00 | 73 | 1017.4 |
| 20260903120217 | 72 | 255 | 8.7 | 20.9 | 0.00 | 0.00 | 0.00 | 73 | 1017.7 |
| 20260903115722 | 72 | 259 | 8.7 | 20.9 | 0.00 | 0.00 | 0.00 | 73 | 1017.8 |
| 20260903115214 | 72 | 240 | 13.9 | 20.0 | 0.00 | 0.00 | 0.00 | 72 | 1017.8 |
| 20260903114719 | 73 | 272 | 13.0 | 20.0 | 0.00 | 0.00 | 0.00 | 72 | 1017.9 |
| 20260903114553 | 74 | 254 | 10.4 | 22.6 | 0.00 | 0.00 | 0.00 | 72 | 1017.9 |
| 20260903113710 | 74 | 237 | 9.6 | 22.6 | 0.00 | 0.00 | 0.00 | 73 | 1017.8 |
| 20260903113211 | 73 | 262 | 13.0 | 18.2 | 0.00 | 0.00 | 0.00 | 74 | 1018.0 |
| 20260903112712 | 73 | 245 | 7.0 | 15.6 | 0.00 | 0.00 | 0.00 | 77 | 1018.0 |
| 20260903112204 | 72 | 275 | 7.0 | 15.6 | 0.00 | 0.00 | 0.00 | 78 | 1018.0 |
| 20260903111704 | 71 | 259 | 9.6 | 20.0 | 0.00 | 0.00 | 0.00 | 79 | 1018.0 |
| 20260903111204 | 70 | 250 | 9.6 | 20.0 | 0.00 | 0.00 | 0.00 | 79 | 1017.9 |
| 20260903110954 | 70 | 268 | 5.2 | 16.5 | 0.00 | 0.00 | 0.00 | 82 | 1018.0 |
| 20260903110833 | 70 | 241 | 6.1 | 14.8 | 0.00 | 0.00 | 0.00 | 81 | 1018.0 |
| 20260903105705 | 69 | 200 | 7.8 | 16.5 | 0.00 | 0.00 | 0.00 | 81 | 1018.0 |
| 20260903105204 | 69 | 271 | 7.8 | 14.8 | 0.00 | 0.00 | 0.00 | 82 | 1018.0 |
| 20260903105056 | 69 | 243 | 8.7 | 13.9 | 0.00 | 0.00 | 0.00 | 84 | 1018.0 |
| 20260903104204 | 68 | 265 | 7.0 | 13.0 | 0.00 | 0.00 | 0.00 | 85 | 1018.0 |
| 20260903103707 | 68 | 292 | 7.8 | 13.0 | 0.00 | 0.00 | 0.00 | 86 | 1018.1 |
| 20260903103204 | 68 | 269 | 6.1 | 12.2 | 0.00 | 0.00 | 0.00 | 86 | 1018.1 |
| 20260903102704 | 67 | 257 | 7.8 | 12.2 | 0.00 | 0.00 | 0.00 | 86 | 1018.1 |
| 20260903102206 | 67 | 279 | 7.0 | 11.3 | 0.00 | 0.00 | 0.00 | 86 | 1018.1 |
| 20260903101717 | 68 | 257 | 7.0 | 12.2 | 0.00 | 0.00 | 0.00 | 86 | 1018.0 |
| 20260903101216 | 68 | 278 | 7.0 | 13.9 | 0.00 | 0.00 | 0.00 | 85 | 1018.1 |
| 20260903100716 | 68 | 338 | 7.8 | 13.9 | 0.00 | 0.00 | 0.00 | 84 | 1018.0 |
| 20260903100202 | 68 | 258 | 6.1 | 15.6 | 0.00 | 0.00 | 0.00 | 84 | 1017.9 |
| 20260903095704 | 68 | 269 | 6.1 | 15.6 | 0.00 | 0.00 | 0.00 | 84 | 1017.8 |
| 20260903095204 | 68 | 216 | 9.6 | 13.0 | 0.00 | 0.00 | 0.00 | 84 | 1017.7 |
| 20260903094704 | 68 | 178 | 5.2 | 13.0 | 0.00 | 0.00 | 0.00 | 83 | 1017.8 |
| 20260903094203 | 68 | 223 | 6.1 | 15.6 | 0.00 | 0.00 | 0.00 | 83 | 1017.8 |
| 20260903093704 | 68 | 248 | 8.7 | 15.6 | 0.00 | 0.00 | 0.00 | 84 | 1017.8 |
| 20260903093216 | 67 | 221 | 6.1 | 13.0 | 0.00 | 0.00 | 0.00 | 83 | 1017.8 |
| 20260903092706 | 67 | 250 | 7.0 | 12.2 | 0.00 | 0.00 | 0.00 | 83 | 1017.7 |
| 20260903092205 | 67 | 285 | 7.8 | 12.2 | 0.00 | 0.00 | 0.00 | 83 | 1017.7 |
| 20260903091703 | 67 | 244 | 7.8 | 12.2 | 0.00 | 0.00 | 0.00 | 82 | 1017.5 |
| 20260903091204 | 67 | 217 | 6.1 | 12.2 | 0.00 | 0.00 | 0.00 | 82 | 1017.4 |
| 20260903090704 | 67 | 196 | 7.0 | 12.2 | 0.00 | 0.00 | 0.00 | 83 | 1017.4 |
| 20260903090203 | 67 | 255 | 8.7 | 12.2 | 0.00 | 0.00 | 0.00 | 83 | 1017.4 |
| 20260903085706 | 67 | 230 | 8.7 | 15.6 | 0.00 | 0.00 | 0.00 | 82 | 1017.3 |
| 20260903085204 | 67 | 264 | 7.8 | 15.6 | 0.00 | 0.00 | 0.00 | 82 | 1017.3 |
| 20260903084703 | 67 | 237 | 6.1 | 13.0 | 0.00 | 0.00 | 0.00 | 82 | 1017.4 |
| 20260903084203 | 67 | 250 | 8.7 | 13.9 | 0.00 | 0.00 | 0.00 | 82 | 1017.3 |
| 20260903083717 | 67 | 206 | 6.1 | 16.5 | 0.00 | 0.00 | 0.00 | 82 | 1017.2 |
| 20260903083159 | 67 | 228 | 9.6 | 16.5 | 0.00 | 0.00 | 0.00 | 83 | 1017.1 |
| 20260903082701 | 67 | 243 | 7.0 | 13.0 | 0.00 | 0.00 | 0.00 | 84 | 1017.0 |
| 20260903082158 | 66 | 220 | 9.6 | 13.0 | 0.00 | 0.00 | 0.00 | 84 | 1017.0 |
| 20260903081701 | 66 | 220 | 6.1 | 11.3 | 0.00 | 0.00 | 0.00 | 84 | 1016.9 |
| 20260903081158 | 66 | 217 | 7.8 | 11.3 | 0.00 | 0.00 | 0.00 | 85 | 1017.2 |
| 20260903080659 | 66 | 241 | 5.2 | 11.3 | 0.00 | 0.00 | 0.00 | 85 | 1017.3 |
| 20260903080158 | 66 | 248 | 5.2 | 11.3 | 0.00 | 0.00 | 0.00 | 85 | 1017.4 |
| 20260903080046 | 66 | 257 | 3.5 | 8.7 | 0.00 | 0.00 | 0.00 | 85 | 1017.4 |
| 20260903075155 | 66 | 230 | 5.2 | 11.3 | 0.00 | 0.00 | 0.00 | 84 | 1017.4 |
| 20260903074653 | 66 | 230 | 7.0 | 11.3 | 0.00 | 0.00 | 0.00 | 84 | 1017.5 |
| 20260903074153 | 66 | 214 | 7.0 | 11.3 | 0.00 | 0.00 | 0.00 | 84 | 1017.3 |
| 20260903073655 | 66 | 216 | 5.2 | 13.9 | 0.00 | 0.00 | 0.00 | 84 | 1017.4 |
| 20260903073150 | 66 | 247 | 7.0 | 13.9 | 0.00 | 0.00 | 0.00 | 83 | 1017.3 |
| 20260903072651 | 66 | 254 | 6.1 | 13.0 | 0.00 | 0.00 | 0.00 | 83 | 1017.5 |
| 20260903072539 | 66 | 281 | 3.5 | 13.0 | 0.00 | 0.00 | 0.00 | 83 | 1017.4 |
| 20260903071653 | 66 | 279 | 5.2 | 13.9 | 0.00 | 0.00 | 0.00 | 81 | 1017.3 |
| 20260903071152 | 66 | 196 | 7.8 | 13.9 | 0.00 | 0.00 | 0.00 | 81 | 1017.3 |
| 20260903070648 | 66 | 258 | 4.3 | 12.2 | 0.00 | 0.00 | 0.00 | 81 | 1017.3 |
| 20260903070538 | 66 | 213 | 7.0 | 10.4 | 0.00 | 0.00 | 0.00 | 80 | 1017.2 |
| 20260903065648 | 66 | 216 | 5.2 | 11.3 | 0.00 | 0.00 | 0.00 | 80 | 1017.1 |
| 20260903065146 | 66 | 238 | 5.2 | 12.2 | 0.00 | 0.00 | 0.00 | 80 | 1017.1 |
| 20260903064648 | 66 | 212 | 7.8 | 12.2 | 0.00 | 0.00 | 0.00 | 80 | 1017.1 |
| 20260903064149 | 66 | 203 | 4.3 | 11.3 | 0.00 | 0.00 | 0.00 | 80 | 1017.1 |
| 20260903063648 | 66 | 227 | 6.1 | 11.3 | 0.00 | 0.00 | 0.00 | 79 | 1017.2 |
| 20260903063145 | 66 | 228 | 5.2 | 11.3 | 0.00 | 0.00 | 0.00 | 79 | 1017.0 |
| 20260903062646 | 66 | 248 | 7.8 | 9.6 | 0.00 | 0.00 | 0.00 | 79 | 1016.9 |
| 20260903062145 | 0 | 0.0 | 0.0 | 0.00 | 0.00 | 0.00 | |||
| 20260903061643 | 0 | 0.0 | 0.0 | 0.00 | 0.00 | 0.00 | |||
| 20260903061147 | 0 | 0.0 | 0.0 | 0.00 | 0.00 | 0.00 | |||
| 20260903060634 | 0 | 0.0 | 0.0 | 0.00 | 0.00 | 0.00 | |||
| 20260903060132 | 0 | 0.0 | 10.4 | 0.00 | 0.00 | 0.00 | |||
| 20260903055636 | 66 | 231 | 7.0 | 10.4 | 0.00 | 0.01 | 0.00 | 78 | 1016.7 |
| 20260903055453 | 66 | 241 | 6.1 | 10.4 | 0.00 | 0.01 | 0.00 | 78 | 1016.8 |
| 20260903054627 | 66 | 245 | 6.1 | 10.4 | 0.00 | 0.01 | 0.00 | 78 | 1016.7 |
| 20260903054129 | 66 | 223 | 7.0 | 13.0 | 0.00 | 0.01 | 0.00 | 78 | 1016.6 |
| 20260903053626 | 66 | 207 | 7.0 | 13.0 | 0.00 | 0.01 | 0.00 | 77 | 1016.5 |
| 20260903053407 | 66 | 248 | 8.7 | 13.0 | 0.00 | 0.01 | 0.00 | 77 | 1017.0 |
| 20260903053255 | 66 | 241 | 7.0 | 13.0 | 0.00 | 0.01 | 0.00 | 77 | 1016.7 |
| 20260903052127 | 66 | 195 | 7.0 | 11.3 | 0.00 | 0.01 | 0.00 | 77 | 1016.9 |
| 20260903052008 | 66 | 254 | 5.2 | 11.3 | 0.00 | 0.01 | 0.00 | 76 | 1016.7 |
| 20260903051127 | 66 | 219 | 7.0 | 11.3 | 0.00 | 0.01 | 0.00 | 76 | 1016.8 |
| 20260903050639 | 66 | 176 | 6.1 | 11.3 | 0.00 | 0.01 | 0.00 | 76 | 1016.8 |
| 20260903050128 | 66 | 220 | 6.1 | 9.6 | 0.00 | 0.01 | 0.00 | 75 | 1017.0 |
| 20260903045626 | 66 | 228 | 5.2 | 10.4 | 0.00 | 0.01 | 0.00 | 75 | 1016.8 |
| 20260903045127 | 66 | 216 | 6.1 | 13.0 | 0.00 | 0.01 | 0.00 | 75 | 1016.7 |
| 20260903044625 | 66 | 214 | 7.0 | 13.0 | 0.00 | 0.01 | 0.00 | 75 | 1016.5 |
| 20260903044506 | 66 | 234 | 7.8 | 11.3 | 0.00 | 0.01 | 0.00 | 74 | 1016.6 |
| 20260903044008 | 66 | 204 | 6.1 | 12.2 | 0.00 | 0.01 | 0.00 | 74 | 1016.6 |
| 20260903043125 | 66 | 266 | 7.0 | 12.2 | 0.00 | 0.01 | 0.00 | 74 | 1016.7 |
| 20260903042625 | 66 | 217 | 7.8 | 11.3 | 0.00 | 0.01 | 0.00 | 74 | 1016.9 |
| 20260903042125 | 66 | 247 | 7.0 | 11.3 | 0.00 | 0.01 | 0.00 | 74 | 1016.9 |
| 20260903041623 | 66 | 228 | 5.2 | 13.0 | 0.00 | 0.01 | 0.00 | 73 | 1016.9 |
| 20260903041511 | 67 | 216 | 7.0 | 13.0 | 0.00 | 0.01 | 0.00 | 73 | 1017.0 |
| 20260903040624 | 67 | 203 | 6.1 | 11.3 | 0.00 | 0.01 | 0.00 | 73 | 1017.0 |
| 20260903040126 | 67 | 233 | 6.1 | 11.3 | 0.00 | 0.01 | 0.00 | 73 | 1017.1 |
| 20260903035622 | 67 | 224 | 6.1 | 11.3 | 0.00 | 0.01 | 0.00 | 73 | 1017.2 |
| 20260903035506 | 67 | 200 | 7.0 | 12.2 | 0.00 | 0.01 | 0.00 | 73 | 1017.2 |
| 20260903034623 | 67 | 258 | 6.1 | 12.2 | 0.00 | 0.01 | 0.00 | 73 | 1017.3 |
| 20260903034124 | 66 | 228 | 7.0 | 13.0 | 0.00 | 0.01 | 0.00 | 73 | 1017.3 |
| 20260903033623 | 66 | 250 | 6.1 | 13.0 | 0.00 | 0.01 | 0.00 | 73 | 1017.2 |
| 20260903033508 | 66 | 243 | 7.0 | 12.2 | 0.00 | 0.01 | 0.00 | 72 | 1017.1 |
| 20260903032625 | 66 | 220 | 7.0 | 12.2 | 0.00 | 0.01 | 0.00 | 72 | 1017.0 |
| 20260903032124 | 66 | 231 | 7.0 | 11.3 | 0.00 | 0.01 | 0.00 | 72 | 1017.1 |
| 20260903031623 | 66 | 219 | 7.0 | 11.3 | 0.00 | 0.01 | 0.00 | 72 | 1017.2 |
| 20260903031124 | 65 | 221 | 6.1 | 10.4 | 0.00 | 0.01 | 0.00 | 72 | 1017.2 |
| 20260903031001 | 65 | 237 | 4.3 | 9.6 | 0.00 | 0.01 | 0.00 | 72 | 1017.3 |
| 20260903030122 | 65 | 195 | 4.3 | 8.7 | 0.00 | 0.01 | 0.00 | 72 | 1017.3 |
| 20260903025622 | 65 | 213 | 3.5 | 7.8 | 0.00 | 0.01 | 0.00 | 72 | 1017.4 |
| 20260903025122 | 65 | 213 | 4.3 | 7.8 | 0.00 | 0.01 | 0.00 | 73 | 1017.4 |
| 20260903024622 | 65 | 199 | 1.7 | 6.1 | 0.00 | 0.01 | 0.00 | 73 | 1017.4 |
| 20260903024121 | 65 | 204 | 3.5 | 6.1 | 0.00 | 0.01 | 0.00 | 73 | 1017.5 |
| 20260903023621 | 65 | 193 | 3.5 | 4.3 | 0.00 | 0.01 | 0.00 | 73 | 1017.7 |
| 20260903023121 | 65 | 226 | 2.6 | 4.3 | 0.00 | 0.01 | 0.00 | 74 | 1017.8 |
| 20260903022622 | 65 | 227 | 2.6 | 4.3 | 0.00 | 0.01 | 0.00 | 74 | 1017.8 |
| 20260903022121 | 65 | 226 | 1.7 | 5.2 | 0.00 | 0.01 | 0.00 | 74 | 1017.7 |
| 20260903021621 | 65 | 226 | 3.5 | 5.2 | 0.00 | 0.01 | 0.00 | 74 | 1017.8 |
| 20260903021122 | 65 | 213 | 2.6 | 4.3 | 0.00 | 0.01 | 0.00 | 74 | 1017.7 |
| 20260903020620 | 65 | 206 | 2.6 | 4.3 | 0.00 | 0.01 | 0.00 | 74 | 1017.6 |
| 20260903020120 | 65 | 212 | 0.0 | 0.0 | 0.00 | 0.01 | 0.00 | 75 | 1017.8 |
| 20260903015619 | 64 | 216 | 0.0 | 0.0 | 0.00 | 0.01 | 0.00 | 75 | 1017.8 |
| 20260903015120 | 65 | 219 | 0.0 | 0.0 | 0.00 | 0.01 | 0.00 | 75 | 1017.7 |
| 20260903014620 | 65 | 220 | 0.0 | 2.6 | 0.00 | 0.01 | 0.00 | 75 | 1017.7 |
| 20260903014120 | 65 | 220 | 0.0 | 2.6 | 0.00 | 0.01 | 0.00 | 75 | 1017.8 |
| 20260903013956 | 65 | 220 | 1.7 | 3.5 | 0.00 | 0.01 | 0.00 | 74 | 1017.8 |
| 20260903013119 | 65 | 221 | 1.7 | 3.5 | 0.00 | 0.01 | 0.00 | 74 | 1017.9 |
| 20260903012618 | 65 | 224 | 2.6 | 4.3 | 0.00 | 0.01 | 0.00 | 74 | 1018.0 |
| 20260903012530 | 65 | 231 | 3.5 | 4.3 | 0.00 | 0.01 | 0.00 | 74 | 1018.1 |
| 20260903011617 | 65 | 221 | 2.6 | 4.3 | 0.00 | 0.01 | 0.00 | 74 | 1018.1 |
| 20260903011117 | 65 | 224 | 3.5 | 5.2 | 0.00 | 0.01 | 0.00 | 74 | 1018.2 |
| 20260903010630 | 65 | 219 | 3.5 | 8.7 | 0.00 | 0.01 | 0.00 | 74 | 1018.2 |
| 20260903010131 | 65 | 230 | 2.6 | 8.7 | 0.00 | 0.01 | 0.00 | 74 | 1018.1 |
| 20260903005618 | 65 | 226 | 4.3 | 7.8 | 0.00 | 0.01 | 0.00 | 74 | 1018.2 |
| 20260903005119 | 65 | 210 | 4.3 | 7.8 | 0.00 | 0.01 | 0.00 | 74 | 1018.5 |
| 20260903004618 | 65 | 204 | 4.3 | 7.8 | 0.00 | 0.01 | 0.00 | 74 | 1018.5 |
| 20260903004118 | 65 | 245 | 3.5 | 6.1 | 0.00 | 0.01 | 0.00 | 73 | 1018.5 |
| 20260903003616 | 65 | 217 | 2.6 | 6.1 | 0.00 | 0.01 | 0.00 | 73 | 1018.5 |
| 20260903003116 | 65 | 190 | 4.3 | 6.1 | 0.00 | 0.01 | 0.00 | 73 | 1018.5 |
| 20260903002618 | 65 | 217 | 4.3 | 8.7 | 0.00 | 0.01 | 0.00 | 73 | 1018.5 |
| 20260903002505 | 65 | 220 | 4.3 | 8.7 | 0.00 | 0.01 | 0.00 | 72 | 1018.5 |
| 20260903001620 | 66 | 210 | 4.3 | 10.4 | 0.00 | 0.01 | 0.00 | 72 | 1018.5 |
| 20260903001118 | 66 | 213 | 6.1 | 13.0 | 0.00 | 0.01 | 0.00 | 72 | 1018.7 |
| 20260903000616 | 65 | 197 | 6.1 | 14.8 | 0.00 | 0.01 | 0.00 | 71 | 1018.6 |
| 20260903000251 | 65 | 212 | 6.1 | 10.4 | 0.00 | 0.01 | 0.00 | 71 | 1018.8 |
| 20260903000208 | 65 | 197 | 8.7 | 14.8 | 0.00 | 0.01 | 0.00 | 71 | 1018.8 |
| 20260902235747 | 65 | 226 | 6.1 | 13.9 | 0.00 | 0.01 | 0.00 | 71 | 1018.9 |
| 20260902235004 | 65 | 204 | 4.3 | 7.8 | 0.00 | 0.01 | 0.00 | 72 | 1018.9 |
| 20260902234115 | 65 | 207 | 4.3 | 7.8 | 0.00 | 0.01 | 0.00 | 71 | 1019.0 |
| 20260902233616 | 65 | 189 | 4.3 | 6.1 | 0.00 | 0.01 | 0.00 | 71 | 1019.1 |
| 20260902233115 | 65 | 189 | 4.3 | 7.8 | 0.00 | 0.01 | 0.00 | 71 | 1019.0 |
| 20260902232616 | 65 | 189 | 4.3 | 7.8 | 0.00 | 0.01 | 0.00 | 70 | 1019.0 |
| 20260902232115 | 65 | 189 | 3.5 | 7.8 | 0.00 | 0.01 | 0.00 | 70 | 1019.1 |
| 20260902231615 | 65 | 192 | 3.5 | 7.8 | 0.00 | 0.01 | 0.00 | 70 | 1019.0 |
| 20260902231505 | 65 | 190 | 3.5 | 7.8 | 0.00 | 0.01 | 0.00 | 70 | 1019.2 |
| 20260902230621 | 65 | 210 | 4.3 | 6.1 | 0.00 | 0.01 | 0.00 | 71 | 1019.4 |
| 20260902230505 | 65 | 238 | 4.3 | 6.1 | 0.00 | 0.01 | 0.00 | 70 | 1019.3 |
| 20260902225615 | 65 | 212 | 3.5 | 6.1 | 0.00 | 0.01 | 0.00 | 70 | 1019.4 |
| 20260902225114 | 65 | 199 | 3.5 | 6.1 | 0.00 | 0.01 | 0.00 | 71 | 1019.3 |
| 20260902224618 | 65 | 199 | 3.5 | 8.7 | 0.00 | 0.01 | 0.00 | 70 | 1019.4 |
| 20260902224458 | 65 | 199 | 4.3 | 8.7 | 0.00 | 0.01 | 0.00 | 71 | 1019.5 |
| 20260902223614 | 65 | 224 | 2.6 | 5.2 | 0.00 | 0.01 | 0.00 | 71 | 1019.6 |
| 20260902223114 | 65 | 224 | 2.6 | 5.2 | 0.00 | 0.01 | 0.00 | 71 | 1019.5 |
| 20260902222612 | 65 | 259 | 2.6 | 5.2 | 0.00 | 0.01 | 0.00 | 72 | 1019.6 |
| 20260902222115 | 65 | 212 | 2.6 | 5.2 | 0.00 | 0.01 | 0.00 | 72 | 1019.6 |
| 20260902222007 | 65 | 243 | 1.7 | 3.5 | 0.00 | 0.01 | 0.00 | 72 | 1019.6 |
| 20260902221410 | 65 | 182 | 1.7 | 4.3 | 0.00 | 0.01 | 0.00 | 73 | 1019.5 |
| 20260902221256 | 65 | 186 | 1.7 | 4.3 | 0.00 | 0.01 | 0.00 | 72 | 1019.6 |
| 20260902220123 | 65 | 196 | 1.7 | 4.3 | 0.00 | 0.01 | 0.00 | 73 | 1019.5 |
| 20260902215613 | 65 | 197 | 0.9 | 3.5 | 0.00 | 0.01 | 0.01 | 73 | 1019.4 |
| 20260902215125 | 65 | 212 | 0.9 | 3.5 | 0.00 | 0.01 | 0.01 | 74 | 1019.5 |
| 20260902214613 | 65 | 212 | 1.7 | 4.3 | 0.00 | 0.01 | 0.01 | 74 | 1019.5 |
| 20260902214346 | 65 | 202 | 2.6 | 4.3 | 0.00 | 0.01 | 0.01 | 74 | 1019.6 |
| 20260902214238 | 65 | 212 | 2.6 | 4.3 | 0.00 | 0.01 | 0.01 | 74 | 1019.5 |
| 20260902213113 | 65 | 206 | 1.7 | 4.3 | 0.00 | 0.01 | 0.01 | 74 | 1019.5 |
| 20260902212611 | 65 | 207 | 2.6 | 4.3 | 0.00 | 0.01 | 0.01 | 74 | 1019.5 |
| 20260902212113 | 65 | 195 | 1.7 | 3.5 | 0.00 | 0.01 | 0.01 | 74 | 1019.4 |
| 20260902211613 | 65 | 196 | 0.9 | 5.2 | 0.00 | 0.01 | 0.01 | 73 | 1019.5 |
| 20260902211113 | 65 | 196 | 2.6 | 5.2 | 0.00 | 0.01 | 0.01 | 73 | 1019.7 |
| 20260902210611 | 65 | 217 | 2.6 | 5.2 | 0.00 | 0.01 | 0.01 | 74 | 1019.7 |
| 20260902210113 | 65 | 182 | 2.6 | 4.3 | 0.00 | 0.01 | 0.01 | 74 | 1019.8 |
| 20260902205611 | 65 | 196 | 1.7 | 4.3 | 0.00 | 0.01 | 0.01 | 74 | 1019.7 |
| 20260902205456 | 65 | 203 | 2.6 | 4.3 | 0.00 | 0.01 | 0.01 | 74 | 1019.7 |
| 20260902204611 | 65 | 183 | 2.6 | 4.3 | 0.00 | 0.01 | 0.01 | 74 | 1019.6 |
| 20260902204112 | 65 | 193 | 2.6 | 5.2 | 0.00 | 0.01 | 0.01 | 74 | 1019.7 |
| 20260902203611 | 65 | 182 | 2.6 | 5.2 | 0.00 | 0.01 | 0.01 | 74 | 1019.7 |
| 20260902203112 | 64 | 210 | 3.5 | 5.2 | 0.00 | 0.01 | 0.01 | 74 | 1019.8 |
| 20260902203005 | 64 | 199 | 2.6 | 5.2 | 0.00 | 0.01 | 0.01 | 74 | 1019.8 |
| 20260902202110 | 64 | 192 | 3.5 | 5.2 | 0.00 | 0.01 | 0.01 | 74 | 1019.8 |
| 20260902201956 | 64 | 185 | 3.5 | 5.2 | 0.00 | 0.01 | 0.01 | 74 | 1019.8 |
| 20260902201109 | 65 | 203 | 3.5 | 5.2 | 0.00 | 0.01 | 0.01 | 74 | 1019.7 |
| 20260902200608 | 65 | 195 | 2.6 | 5.2 | 0.00 | 0.01 | 0.01 | 74 | 1019.8 |
| 20260902200451 | 65 | 197 | 2.6 | 5.2 | 0.00 | 0.01 | 0.01 | 74 | 1019.8 |
| 20260902195607 | 65 | 196 | 2.6 | 5.2 | 0.00 | 0.01 | 0.01 | 73 | 1019.8 |
| 20260902195106 | 65 | 193 | 1.7 | 4.3 | 0.00 | 0.01 | 0.01 | 73 | 1019.9 |
| 20260902194606 | 65 | 197 | 1.7 | 4.3 | 0.00 | 0.01 | 0.01 | 74 | 1019.9 |
| 20260902194119 | 65 | 202 | 1.7 | 3.5 | 0.00 | 0.01 | 0.01 | 73 | 1020.0 |
| 20260902193604 | 65 | 203 | 1.7 | 3.5 | 0.00 | 0.01 | 0.01 | 73 | 1020.0 |
| 20260902193449 | 65 | 204 | 1.7 | 3.5 | 0.00 | 0.01 | 0.01 | 73 | 1020.0 |
| 20260902192605 | 65 | 199 | 1.7 | 4.3 | 0.00 | 0.01 | 0.01 | 72 | 1020.0 |
| 20260902192106 | 66 | 197 | 1.7 | 4.3 | 0.00 | 0.01 | 0.01 | 72 | 1020.0 |
| 20260902191605 | 66 | 197 | 1.7 | 3.5 | 0.00 | 0.01 | 0.01 | 72 | 1020.0 |
| 20260902191102 | 66 | 196 | 1.7 | 4.3 | 0.00 | 0.01 | 0.01 | 72 | 1020.0 |
| 20260902190628 | 67 | 182 | 1.7 | 3.5 | 0.00 | 0.01 | 0.01 | 71 | 1019.9 |
| 20260902190619 | 66 | 186 | 0.0 | 2.6 | 0.00 | 0.01 | 0.01 | 72 | 1019.9 |
| 20260902190607 | 66 | 195 | 2.6 | 4.3 | 0.00 | 0.01 | 0.01 | 72 | 1019.9 |
| 20260902190556 | 66 | 183 | 0.9 | 2.6 | 0.00 | 0.01 | 0.01 | 71 | 1019.9 |
| 20260902184603 | 67 | 182 | 1.7 | 4.3 | 0.00 | 0.01 | 0.01 | 71 | 1019.9 |
| 20260902184106 | 67 | 179 | 1.7 | 4.3 | 0.00 | 0.01 | 0.01 | 70 | 1019.8 |
| 20260902183604 | 67 | 182 | 3.5 | 4.3 | 0.00 | 0.01 | 0.01 | 70 | 1019.8 |
| 20260902183103 | 67 | 192 | 1.7 | 4.3 | 0.00 | 0.01 | 0.01 | 70 | 1019.9 |
| 20260902182604 | 67 | 192 | 1.7 | 4.3 | 0.00 | 0.01 | 0.01 | 70 | 1019.8 |
| 20260902182103 | 67 | 199 | 0.9 | 3.5 | 0.00 | 0.01 | 0.01 | 70 | 1019.9 |
| 20260902181605 | 67 | 200 | 1.7 | 2.6 | 0.00 | 0.01 | 0.01 | 69 | 1019.8 |
| 20260902181104 | 68 | 200 | 0.0 | 2.6 | 0.00 | 0.01 | 0.01 | 69 | 1019.8 |
| 20260902180954 | 68 | 202 | 1.7 | 2.6 | 0.00 | 0.01 | 0.01 | 69 | 1019.8 |
| 20260902180117 | 68 | 203 | 1.7 | 3.5 | 0.00 | 0.01 | 0.01 | 69 | 1019.8 |
| 20260902175604 | 68 | 204 | 1.7 | 3.5 | 0.00 | 0.01 | 0.01 | 69 | 1019.9 |
| 20260902175104 | 68 | 203 | 1.7 | 3.5 | 0.00 | 0.01 | 0.01 | 69 | 1019.9 |
| 20260902174604 | 68 | 202 | 1.7 | 4.3 | 0.00 | 0.01 | 0.01 | 69 | 1019.8 |
| 20260902174104 | 68 | 216 | 3.5 | 5.2 | 0.00 | 0.01 | 0.01 | 68 | 1019.8 |
| 20260902173605 | 68 | 210 | 2.6 | 5.2 | 0.00 | 0.01 | 0.01 | 69 | 1019.9 |
| 20260902173444 | 68 | 221 | 2.6 | 4.3 | 0.00 | 0.01 | 0.01 | 68 | 1019.9 |
| 20260902172604 | 68 | 209 | 3.5 | 7.8 | 0.00 | 0.01 | 0.01 | 68 | 1019.9 |
| 20260902172105 | 68 | 210 | 3.5 | 7.8 | 0.00 | 0.01 | 0.01 | 68 | 1019.8 |
| 20260902171605 | 68 | 210 | 3.5 | 6.1 | 0.00 | 0.01 | 0.01 | 68 | 1019.9 |
| 20260902171102 | 68 | 212 | 4.3 | 7.8 | 0.00 | 0.01 | 0.01 | 67 | 1019.9 |
| 20260902170604 | 68 | 230 | 5.2 | 7.8 | 0.00 | 0.01 | 0.01 | 67 | 1019.9 |
| 20260902170456 | 69 | 219 | 5.2 | 9.6 | 0.00 | 0.01 | 0.01 | 67 | 1019.9 |
| 20260902165603 | 69 | 257 | 5.2 | 10.4 | 0.00 | 0.01 | 0.01 | 66 | 1020.0 |
| 20260902165451 | 69 | 179 | 4.3 | 11.3 | 0.00 | 0.01 | 0.01 | 66 | 1019.9 |
| 20260902164605 | 69 | 224 | 5.2 | 11.3 | 0.00 | 0.01 | 0.01 | 66 | 1019.9 |
| 20260902164104 | 69 | 227 | 7.8 | 10.4 | 0.00 | 0.01 | 0.01 | 66 | 1020.0 |
| 20260902163954 | 69 | 223 | 7.0 | 8.7 | 0.00 | 0.01 | 0.01 | 67 | 1020.0 |
| 20260902163432 | 0 | 199 | 7.0 | 8.7 | 0.00 | 0.01 | 0.01 | 1020.0 | |
| 20260902162605 | 69 | 196 | 7.0 | 11.3 | 0.00 | 0.01 | 0.01 | 67 | 1020.1 |
| 20260902162104 | 69 | 227 | 6.1 | 11.3 | 0.00 | 0.01 | 0.01 | 67 | 1020.1 |
| 20260902161605 | 69 | 224 | 5.2 | 9.6 | 0.00 | 0.01 | 0.01 | 67 | 1020.1 |
| 20260902161103 | 69 | 183 | 5.2 | 9.6 | 0.00 | 0.01 | 0.01 | 67 | 1020.2 |
| 20260902160617 | 70 | 216 | 3.5 | 7.8 | 0.00 | 0.01 | 0.01 | 67 | 1020.3 |
| 20260902160108 | 70 | 221 | 4.3 | 10.4 | 0.00 | 0.01 | 0.01 | 66 | 1020.3 |
| 20260902155953 | 70 | 227 | 6.1 | 11.3 | 0.00 | 0.01 | 0.01 | 66 | 1020.2 |
| 20260902155449 | 70 | 213 | 7.0 | 11.3 | 0.00 | 0.01 | 0.01 | 66 | 1020.3 |
| 20260902154604 | 70 | 227 | 6.1 | 11.3 | 0.00 | 0.01 | 0.01 | 66 | 1020.3 |
| 20260902154445 | 70 | 234 | 7.0 | 12.2 | 0.00 | 0.01 | 0.01 | 65 | 1020.3 |
| 20260902153945 | 70 | 234 | 7.0 | 12.2 | 0.00 | 0.01 | 0.01 | 65 | 1020.2 |
| 20260902153104 | 70 | 193 | 5.2 | 10.4 | 0.00 | 0.01 | 0.01 | 65 | 1020.3 |
| 20260902152605 | 70 | 221 | 3.5 | 6.1 | 0.00 | 0.01 | 0.01 | 66 | 1020.2 |
| 20260902152348 | 70 | 183 | 4.3 | 6.1 | 0.00 | 0.01 | 0.01 | 66 | 1020.4 |
| 20260902152235 | 70 | 186 | 3.5 | 6.1 | 0.00 | 0.01 | 0.01 | 67 | 1020.2 |
| 20260902151104 | 70 | 197 | 3.5 | 6.1 | 0.00 | 0.01 | 0.01 | 65 | 1020.4 |
| 20260902150603 | 70 | 238 | 4.3 | 7.8 | 0.00 | 0.01 | 0.01 | 67 | 1020.5 |
| 20260902150113 | 69 | 234 | 5.2 | 7.8 | 0.00 | 0.01 | 0.01 | 68 | 1020.5 |
| 20260902145605 | 69 | 251 | 5.2 | 7.8 | 0.00 | 0.01 | 0.01 | 67 | 1020.6 |
| 20260902145105 | 69 | 244 | 4.3 | 9.6 | 0.00 | 0.01 | 0.01 | 68 | 1020.6 |
| 20260902144603 | 69 | 257 | 5.2 | 9.6 | 0.00 | 0.01 | 0.01 | 67 | 1020.6 |
| 20260902144104 | 69 | 206 | 5.2 | 9.6 | 0.00 | 0.01 | 0.01 | 67 | 1020.6 |
| 20260902144004 | 69 | 252 | 3.5 | 8.7 | 0.00 | 0.01 | 0.01 | 66 | 1020.6 |